Content
SEND FEEDBACK

Daily
Averages
Monthly
Summary
United States of America

BLACK HAWK, SOUTH DAKOTA


Home > North America > United States > South Dakota
Elevation: 3352 feet     Latitude: 44 05N     Longitude: 103 16W

WEATHER
 
SELECT A DAY
Number of Records: 204,292;   Date Range: 1/1/95 - 9/16/14
 
SHARE

PRINT THIS DATA

[ ← Previous Day ]
WEATHER ALMANAC - JANUARY 24, 2013
[ Next Day → ]
[ °C ]   °F
Weather ElementAverageHighLow
Temperature23 °F41.2 °F (5:55 pm)8.6 °F (6:55 am)
Dewpoint13.9 °F22.8 °F (6:55 pm)5 °F (6:55 am)
Humidity70.1 %86 % (3:55 am)47 % (4:55 pm)
Barometer30.13 in30.22 in (1:55 am)30.01 in (12:55 pm)
Wind Speed8.3 mph18.4 mph (1:55 am)
Weather ElementAverage
Visibility10 mi
Wind DirectionSSW (200.4 °)

Weather ElementTotal
Precipitation---
Heating Degree Days40.1 (Base 65)
Averaged from 23 records on January 24, 2013
WEATHER CONDITIONS BREAKOUT
WIND DIRECTION BREAKOUT
WEATHER BY HOUR - JANUARY 24, 2013
[ °C ]   °F
Local TimeTemperatureDewpointHumidityBarometerVisibilityWind DirectionWind SpeedGust SpeedPrecipitationEventsConditions
1:55 AM10.2 °F6.6 °F85 %30.22 in10.0 miSouth (170°)18.4 mphOvercast
2:55 AM10.4 °F6.8 °F85 %30.17 in10.0 miSouth (170°)16.1 mphMostly Cloudy
3:55 AM9.7 °F6.3 °F86 %30.17 in10.0 miSE (140°)9.2 mphScattered Clouds
4:55 AM9.1 °F5.7 °F86 %30.13 in10.0 miSE (140°)8.1 mphScattered Clouds
5:55 AM9.9 °F6.3 °F85 %30.13 in10.0 miENE (60°)4.6 mphScattered Clouds
6:55 AM8.6 °F5.0 °F85 %30.13 in10.0 miCalmMostly Cloudy
7:55 AM9.9 °F6.4 °F86 %30.12 in10.0 miCalmMostly Cloudy
8:55 AM11.5 °F7.9 °F85 %30.11 in10.0 miCalmOvercast
9:55 AM16.0 °F10.4 °F79 %30.10 in10.0 miNNE (30°)3.5 mphPartly Cloudy
10:55 AM19.0 °F11.1 °F71 %30.09 in10.0 miNorth (360°)3.5 mphPartly Cloudy
11:55 AM23.5 °F12.7 °F63 %30.04 in10.0 miCalmPartly Cloudy
12:55 PM29.7 °F15.6 °F56 %30.01 in10.0 miCalmPartly Cloudy
1:55 PM31.6 °F16.0 °F52 %30.01 in10.0 miNorth (360°)9.2 mph
2:55 PM32.0 °F18.0 °F56 %30.04 in10.0 miNorth (360°)12.7 mphPartly Cloudy
3:55 PM33.3 °F18.5 °F55 %30.07 in10.0 miNNW (340°)10.4 mphScattered Clouds
4:55 PM39.6 °F20.7 °F47 %30.07 in10.0 miNNW (330°)12.7 mphScattered Clouds
5:55 PM41.2 °F22.6 °F48 %30.11 in10.0 miNNW (340°)17.3 mphScattered Clouds
6:55 PM36.9 °F22.8 °F57 %30.16 in10.0 miNNW (340°)12.7 mphPartly Cloudy
7:55 PM33.1 °F22.1 °F64 %30.18 in10.0 miNW (310°)11.5 mphMostly Cloudy
8:55 PM33.1 °F21.9 °F64 %30.19 in10.0 miNW (320°)11.5 mphClear
9:55 PM28.6 °F20.3 °F71 %30.20 in10.0 miWNW (290°)10.4 mphPartly Cloudy
10:55 PM27.5 °F19.2 °F71 %30.21 in10.0 miWest (270°)10.4 mphClear
11:55 PM24.1 °F17.6 °F76 %30.22 in10.0 miWest (280°)8.1 mphClear
Hourly data recorded from KRCA, located miles away from Black Hawk, South Dakota







STORIES FROM OUR PARTNERS